Year,Month,Day,Hour,Minute,Value (Times are PST for barometer in hPa)
2008,01,05,00,00,971.89
2008,01,05,00,01,971.93
2008,01,05,00,02,971.89
2008,01,05,00,03,971.89
2008,01,05,00,04,971.89
2008,01,05,00,05,971.89
2008,01,05,00,06,971.83
2008,01,05,00,07,971.86
2008,01,05,00,08,971.94
2008,01,05,00,09,972.06
2008,01,05,00,10,972.13
2008,01,05,00,11,971.89
2008,01,05,00,12,971.96
2008,01,05,00,13,972.03
2008,01,05,00,14,972.03
2008,01,05,00,15,972.03
2008,01,05,00,16,971.96
2008,01,05,00,17,971.96
2008,01,05,00,18,972.06
2008,01,05,00,19,972.03
2008,01,05,00,20,972.06
2008,01,05,00,21,972.13
2008,01,05,00,22,972.16
2008,01,05,00,23,972.16
2008,01,05,00,24,972.10
2008,01,05,00,25,972.13
2008,01,05,00,26,972.23
2008,01,05,00,27,972.33
2008,01,05,00,28,972.30
2008,01,05,00,29,972.30
2008,01,05,00,30,972.40
2008,01,05,00,31,972.33
2008,01,05,00,32,972.46
2008,01,05,00,33,972.54
2008,01,05,00,34,972.61
2008,01,05,00,35,972.61
2008,01,05,00,36,972.61
2008,01,05,00,37,972.61
2008,01,05,00,38,972.57
2008,01,05,00,39,972.54
2008,01,05,00,40,972.57
2008,01,05,00,41,972.61
2008,01,05,00,42,972.61
2008,01,05,00,43,972.74
2008,01,05,00,44,972.71
2008,01,05,00,45,972.64
2008,01,05,00,46,972.64
2008,01,05,00,47,972.64
2008,01,05,00,48,972.71
2008,01,05,00,49,972.71
2008,01,05,00,50,972.77
2008,01,05,00,51,972.77
2008,01,05,00,52,972.62
2008,01,05,00,53,972.61
2008,01,05,00,54,972.71
2008,01,05,00,55,972.67
2008,01,05,00,56,972.67
2008,01,05,00,57,972.61
2008,01,05,00,58,972.54
2008,01,05,00,59,972.50
2008,01,05,01,00,972.64
2008,01,05,01,01,972.57
2008,01,05,01,02,972.71
2008,01,05,01,03,972.71
2008,01,05,01,04,972.74
2008,01,05,01,05,972.67
2008,01,05,01,06,972.74
2008,01,05,01,07,972.81
2008,01,05,01,08,972.84
2008,01,05,01,09,972.84
2008,01,05,01,10,972.94
2008,01,05,01,11,972.94
2008,01,05,01,12,972.94
2008,01,05,01,13,972.94
2008,01,05,01,14,972.91
2008,01,05,01,15,972.94
2008,01,05,01,16,973.01
2008,01,05,01,17,973.01
2008,01,05,01,18,973.01
2008,01,05,01,19,973.05
2008,01,05,01,20,973.11
2008,01,05,01,21,973.15
2008,01,05,01,22,973.21
2008,01,05,01,23,973.25
2008,01,05,01,24,973.32
2008,01,05,01,25,973.32
2008,01,05,01,26,973.42
2008,01,05,01,27,973.42
2008,01,05,01,28,973.45
2008,01,05,01,29,973.42
2008,01,05,01,30,973.45
2008,01,05,01,31,973.52
2008,01,05,01,32,973.42
2008,01,05,01,33,973.42
2008,01,05,01,34,973.49
2008,01,05,01,35,973.52
2008,01,05,01,36,973.55
2008,01,05,01,37,973.52
2008,01,05,01,38,973.55
2008,01,05,01,39,973.52
2008,01,05,01,40,973.55
2008,01,05,01,41,973.52
2008,01,05,01,42,973.55
2008,01,05,01,43,973.52
2008,01,05,01,44,973.55
2008,01,05,01,45,973.59
2008,01,05,01,46,973.62
2008,01,05,01,47,973.69
2008,01,05,01,48,973.72
2008,01,05,01,49,973.65
2008,01,05,01,50,973.72
2008,01,05,01,51,973.76
2008,01,05,01,52,973.79
2008,01,05,01,53,973.93
2008,01,05,01,54,973.99
2008,01,05,01,55,973.99
2008,01,05,01,56,973.96
2008,01,05,01,57,974.03
2008,01,05,01,58,974.10
2008,01,05,01,59,974.10
2008,01,05,02,00,974.13
2008,01,05,02,01,974.22
2008,01,05,02,02,974.30
2008,01,05,02,03,974.40
2008,01,05,02,04,974.47
2008,01,05,02,05,974.47
2008,01,05,02,06,974.54
2008,01,05,02,07,974.54
2008,01,05,02,08,974.54
2008,01,05,02,09,974.57
2008,01,05,02,10,974.57
2008,01,05,02,11,974.57
2008,01,05,02,12,974.60
2008,01,05,02,13,974.57
2008,01,05,02,14,974.60
2008,01,05,02,15,974.57
2008,01,05,02,16,974.54
2008,01,05,02,17,974.50
2008,01,05,02,18,974.54
2008,01,05,02,19,974.60
2008,01,05,02,20,974.64
2008,01,05,02,21,974.74
2008,01,05,02,22,974.77
2008,01,05,02,23,974.81
2008,01,05,02,24,974.84
2008,01,05,02,25,974.87
2008,01,05,02,26,975.04
2008,01,05,02,27,975.08
2008,01,05,02,28,975.18
2008,01,05,02,29,975.28
2008,01,05,02,30,975.35
2008,01,05,02,31,975.38
2008,01,05,02,32,975.48
2008,01,05,02,33,975.52
2008,01,05,02,34,975.55
2008,01,05,02,35,975.55
2008,01,05,02,36,975.59
2008,01,05,02,37,975.55
2008,01,05,02,38,975.52
2008,01,05,02,39,975.59
2008,01,05,02,40,975.62
2008,01,05,02,41,975.62
2008,01,05,02,42,975.59
2008,01,05,02,43,975.59
2008,01,05,02,44,975.59
2008,01,05,02,45,975.59
2008,01,05,02,46,975.69
2008,01,05,02,47,975.72
2008,01,05,02,48,975.86
2008,01,05,02,49,975.79
2008,01,05,02,50,975.75
2008,01,05,02,51,975.79
2008,01,05,02,52,975.72
2008,01,05,02,53,975.72
2008,01,05,02,54,975.69
2008,01,05,02,55,975.72
2008,01,05,02,56,975.72
2008,01,05,02,57,975.75
2008,01,05,02,58,975.86
2008,01,05,02,59,975.86
2008,01,05,03,00,975.86
2008,01,05,03,01,975.89
2008,01,05,03,02,975.89
2008,01,05,03,03,975.89
2008,01,05,03,04,975.89
2008,01,05,03,05,975.96
2008,01,05,03,06,975.96
2008,01,05,03,07,976.06
2008,01,05,03,08,976.19
2008,01,05,03,09,976.30
2008,01,05,03,10,976.33
2008,01,05,03,11,976.33
2008,01,05,03,12,976.36
2008,01,05,03,13,976.36
2008,01,05,03,14,976.36
2008,01,05,03,15,976.30
2008,01,05,03,16,976.23
2008,01,05,03,17,976.23
2008,01,05,03,18,976.30
2008,01,05,03,19,976.26
2008,01,05,03,20,976.30
2008,01,05,03,21,976.17
2008,01,05,03,22,976.16
2008,01,05,03,23,976.19
2008,01,05,03,24,976.30
2008,01,05,03,25,976.33
2008,01,05,03,26,976.36
2008,01,05,03,27,976.40
2008,01,05,03,28,976.47
2008,01,05,03,29,976.53
2008,01,05,03,30,976.53
2008,01,05,03,31,976.57
2008,01,05,03,32,976.70
2008,01,05,03,33,976.67
2008,01,05,03,34,976.70
2008,01,05,03,35,976.74
2008,01,05,03,36,976.74
2008,01,05,03,37,976.70
2008,01,05,03,38,976.70
2008,01,05,03,39,976.74
2008,01,05,03,40,976.70
2008,01,05,03,41,976.74
2008,01,05,03,42,976.70
2008,01,05,03,43,976.74
2008,01,05,03,44,976.67
2008,01,05,03,45,976.77
2008,01,05,03,46,976.77
2008,01,05,03,47,976.80
2008,01,05,03,48,976.74
2008,01,05,03,49,976.74
2008,01,05,03,50,976.67
2008,01,05,03,51,976.84
2008,01,05,03,52,976.87
2008,01,05,03,53,976.94
2008,01,05,03,54,976.94
2008,01,05,03,55,976.91
2008,01,05,03,56,977.04
2008,01,05,03,57,977.08
2008,01,05,03,58,977.11
2008,01,05,03,59,977.14
2008,01,05,04,00,977.14
2008,01,05,04,01,977.11
2008,01,05,04,02,977.04
2008,01,05,04,03,976.95
2008,01,05,04,04,976.87
2008,01,05,04,05,976.80
2008,01,05,04,06,976.94
2008,01,05,04,07,977.11
2008,01,05,04,08,977.14
2008,01,05,04,09,977.18
2008,01,05,04,10,977.28
2008,01,05,04,11,977.28
2008,01,05,04,12,977.38
2008,01,05,04,13,977.48
2008,01,05,04,14,977.52
2008,01,05,04,15,977.52
2008,01,05,04,16,977.48
2008,01,05,04,17,977.48
2008,01,05,04,18,977.52
2008,01,05,04,19,977.52
2008,01,05,04,20,977.52
2008,01,05,04,21,977.48
2008,01,05,04,22,977.52
2008,01,05,04,23,977.62
2008,01,05,04,24,977.65
2008,01,05,04,25,977.72
2008,01,05,04,26,977.79
2008,01,05,04,27,977.85
2008,01,05,04,28,977.89
2008,01,05,04,29,977.92
2008,01,05,04,30,977.99
2008,01,05,04,31,977.92
2008,01,05,04,32,977.89
2008,01,05,04,33,977.82
2008,01,05,04,34,977.82
2008,01,05,04,35,977.85
2008,01,05,04,36,977.96
2008,01,05,04,37,978.02
2008,01,05,04,38,978.22
2008,01,05,04,39,978.36
2008,01,05,04,40,978.46
2008,01,05,04,41,978.50
2008,01,05,04,42,978.50
2008,01,05,04,43,978.50
2008,01,05,04,44,978.53
2008,01,05,04,45,978.63
2008,01,05,04,46,978.67
2008,01,05,04,47,978.77
2008,01,05,04,48,978.84
2008,01,05,04,49,978.80
2008,01,05,04,50,978.80
2008,01,05,04,51,978.70
2008,01,05,04,52,978.57
2008,01,05,04,53,978.43
2008,01,05,04,54,978.29
2008,01,05,04,55,978.26
2008,01,05,04,56,978.26
2008,01,05,04,57,978.35
2008,01,05,04,58,978.49
2008,01,05,04,59,978.67
2008,01,05,05,00,978.80
2008,01,05,05,01,978.87
2008,01,05,05,02,978.94
2008,01,05,05,03,978.97
2008,01,05,05,04,979.04
2008,01,05,05,05,979.11
2008,01,05,05,06,978.94
2008,01,05,05,07,978.80
2008,01,05,05,08,978.84
2008,01,05,05,09,979.01
2008,01,05,05,10,979.07
2008,01,05,05,11,979.24
2008,01,05,05,12,979.41
2008,01,05,05,13,979.48
2008,01,05,05,14,979.55
2008,01,05,05,15,979.58
2008,01,05,05,16,979.55
2008,01,05,05,17,979.51
2008,01,05,05,18,979.45
2008,01,05,05,19,979.45
2008,01,05,05,20,979.45
2008,01,05,05,21,979.48
2008,01,05,05,22,979.41
2008,01,05,05,23,979.25
2008,01,05,05,24,979.34
2008,01,05,05,25,979.38
2008,01,05,05,26,979.45
2008,01,05,05,27,979.41
2008,01,05,05,28,979.34
2008,01,05,05,29,979.24
2008,01,05,05,30,979.24
2008,01,05,05,31,979.14
2008,01,05,05,32,979.14
2008,01,05,05,33,979.14
2008,01,05,05,34,979.23
2008,01,05,05,35,979.21
2008,01,05,05,36,979.17
2008,01,05,05,37,979.14
2008,01,05,05,38,979.17
2008,01,05,05,39,979.14
2008,01,05,05,40,979.14
2008,01,05,05,41,979.14
2008,01,05,05,42,979.14
2008,01,05,05,43,979.17
2008,01,05,05,44,979.11
2008,01,05,05,45,979.21
2008,01,05,05,46,979.30
2008,01,05,05,47,979.44
2008,01,05,05,48,979.54
2008,01,05,05,49,979.55
2008,01,05,05,50,979.61
2008,01,05,05,51,979.72
2008,01,05,05,52,979.92
2008,01,05,05,53,979.68
2008,01,05,05,54,979.75
2008,01,05,05,55,979.62
2008,01,05,05,56,979.51
2008,01,05,05,57,979.45
2008,01,05,05,58,979.45
2008,01,05,05,59,979.51
2008,01,05,06,00,979.55
2008,01,05,06,01,979.61
2008,01,05,06,02,979.51
2008,01,05,06,03,979.58
2008,01,05,06,04,979.71
2008,01,05,06,05,979.78
2008,01,05,06,06,979.75
2008,01,05,06,07,979.75
2008,01,05,06,08,979.91
2008,01,05,06,09,979.95
2008,01,05,06,10,979.99
2008,01,05,06,11,979.99
2008,01,05,06,12,979.78
2008,01,05,06,13,979.65
2008,01,05,06,14,979.72
2008,01,05,06,15,979.75
2008,01,05,06,16,979.94
2008,01,05,06,17,980.09
2008,01,05,06,18,980.16
2008,01,05,06,19,980.29
2008,01,05,06,20,980.39
2008,01,05,06,21,980.50
2008,01,05,06,22,980.53
2008,01,05,06,23,980.70
2008,01,05,06,24,980.73
2008,01,05,06,25,980.77
2008,01,05,06,26,980.80
2008,01,05,06,27,980.90
2008,01,05,06,28,981.04
2008,01,05,06,29,981.00
2008,01,05,06,30,981.04
2008,01,05,06,31,981.04
2008,01,05,06,32,980.91
2008,01,05,06,33,980.83
2008,01,05,06,34,980.67
2008,01,05,06,35,980.56
2008,01,05,06,36,980.39
2008,01,05,06,37,980.33
2008,01,05,06,38,980.26
2008,01,05,06,39,980.22
2008,01,05,06,40,980.26
2008,01,05,06,41,980.33
2008,01,05,06,42,980.26
2008,01,05,06,43,980.07
2008,01,05,06,44,980.02
2008,01,05,06,45,980.19
2008,01,05,06,46,980.29
2008,01,05,06,47,980.29
2008,01,05,06,48,980.33
2008,01,05,06,49,980.39
2008,01,05,06,50,980.36
2008,01,05,06,51,980.26
2008,01,05,06,52,980.22
2008,01,05,06,53,980.29
2008,01,05,06,54,980.36
2008,01,05,06,55,980.46
2008,01,05,06,56,980.60
2008,01,05,06,57,980.63
2008,01,05,06,58,980.66
2008,01,05,06,59,980.70
2008,01,05,07,00,980.77
2008,01,05,07,01,980.73
2008,01,05,07,02,980.83
2008,01,05,07,03,980.77
2008,01,05,07,04,980.86
2008,01,05,07,05,980.83
2008,01,05,07,06,980.80
2008,01,05,07,07,980.94
2008,01,05,07,08,981.04
2008,01,05,07,09,981.00
2008,01,05,07,10,981.04
2008,01,05,07,11,981.00
2008,01,05,07,12,981.07
2008,01,05,07,13,981.04
2008,01,05,07,14,981.00
2008,01,05,07,15,981.10
2008,01,05,07,16,981.10
2008,01,05,07,17,981.07
2008,01,05,07,18,981.04
2008,01,05,07,19,981.04
2008,01,05,07,20,981.04
2008,01,05,07,21,981.10
2008,01,05,07,22,981.14
2008,01,05,07,23,981.10
2008,01,05,07,24,981.04
2008,01,05,07,25,981.10
2008,01,05,07,26,981.14
2008,01,05,07,27,981.21
2008,01,05,07,28,981.21
2008,01,05,07,29,981.14
2008,01,05,07,30,981.04
2008,01,05,07,31,981.10
2008,01,05,07,32,981.23
2008,01,05,07,33,981.27
2008,01,05,07,34,981.38
2008,01,05,07,35,981.44
2008,01,05,07,36,981.44
2008,01,05,07,37,981.51
2008,01,05,07,38,981.51
2008,01,05,07,39,981.55
2008,01,05,07,40,981.58
2008,01,05,07,41,981.65
2008,01,05,07,42,981.68
2008,01,05,07,43,981.68
2008,01,05,07,44,981.68
2008,01,05,07,45,981.75
2008,01,05,07,46,981.75
2008,01,05,07,47,981.78
2008,01,05,07,48,981.91
2008,01,05,07,49,981.95
2008,01,05,07,50,981.92
2008,01,05,07,51,981.88
2008,01,05,07,52,981.88
2008,01,05,07,53,981.88
2008,01,05,07,54,981.88
2008,01,05,07,55,981.85
2008,01,05,07,56,981.99
2008,01,05,07,57,982.05
2008,01,05,07,58,982.15
2008,01,05,07,59,982.15
2008,01,05,08,00,982.12
2008,01,05,08,01,981.99
2008,01,05,08,02,981.92
2008,01,05,08,03,981.92
2008,01,05,08,04,981.99
2008,01,05,08,05,982.05
2008,01,05,08,06,982.12
2008,01,05,08,07,982.15
2008,01,05,08,08,982.12
2008,01,05,08,09,982.15
2008,01,05,08,10,982.26
2008,01,05,08,11,982.36
2008,01,05,08,12,982.36
2008,01,05,08,13,982.29
2008,01,05,08,14,982.26
2008,01,05,08,15,982.36
2008,01,05,08,16,982.36
2008,01,05,08,17,982.39
2008,01,05,08,18,982.39
2008,01,05,08,19,982.46
2008,01,05,08,20,982.49
2008,01,05,08,21,982.49
2008,01,05,08,22,982.46
2008,01,05,08,23,982.53
2008,01,05,08,24,982.56
2008,01,05,08,25,982.59
2008,01,05,08,26,982.66
2008,01,05,08,27,982.63
2008,01,05,08,28,982.70
2008,01,05,08,29,982.73
2008,01,05,08,30,982.73
2008,01,05,08,31,982.66
2008,01,05,08,32,982.73
2008,01,05,08,33,982.90
2008,01,05,08,34,982.90
2008,01,05,08,35,982.93
2008,01,05,08,36,983.00
2008,01,05,08,37,983.04
2008,01,05,08,38,983.04
2008,01,05,08,39,983.07
2008,01,05,08,40,983.14
2008,01,05,08,41,983.17
2008,01,05,08,42,983.20
2008,01,05,08,43,983.20
2008,01,05,08,44,983.20
2008,01,05,08,45,983.27
2008,01,05,08,46,983.31
2008,01,05,08,47,983.31
2008,01,05,08,48,983.31
2008,01,05,08,49,983.31
2008,01,05,08,50,983.34
2008,01,05,08,51,983.37
2008,01,05,08,52,983.37
2008,01,05,08,53,983.51
2008,01,05,08,54,983.51
2008,01,05,08,55,983.44
2008,01,05,08,56,983.51
2008,01,05,08,57,983.64
2008,01,05,08,58,983.71
2008,01,05,08,59,983.68
2008,01,05,09,00,983.75
2008,01,05,09,01,983.85
2008,01,05,09,02,983.95
2008,01,05,09,03,984.05
2008,01,05,09,04,984.05
2008,01,05,09,05,984.12
2008,01,05,09,06,984.15
2008,01,05,09,07,984.15
2008,01,05,09,08,984.02
2008,01,05,09,09,983.95
2008,01,05,09,10,983.88
2008,01,05,09,11,983.85
2008,01,05,09,12,983.97
2008,01,05,09,13,983.95
2008,01,05,09,14,984.02
2008,01,05,09,15,984.08
2008,01,05,09,16,984.12
2008,01,05,09,17,984.12
2008,01,05,09,18,984.15
2008,01,05,09,19,984.22
2008,01,05,09,20,984.29
2008,01,05,09,21,984.29
2008,01,05,09,22,984.29
2008,01,05,09,23,984.29
2008,01,05,09,24,984.32
2008,01,05,09,25,984.32
2008,01,05,09,26,984.32
2008,01,05,09,27,984.25
2008,01,05,09,28,984.29
2008,01,05,09,29,984.25
2008,01,05,09,30,984.22
2008,01,05,09,31,984.29
2008,01,05,09,32,984.32
2008,01,05,09,33,984.39
2008,01,05,09,34,984.39
2008,01,05,09,35,984.39
2008,01,05,09,36,984.46
2008,01,05,09,37,984.53
2008,01,05,09,38,984.53
2008,01,05,09,39,984.53
2008,01,05,09,40,984.46
2008,01,05,09,41,984.36
2008,01,05,09,42,984.32
2008,01,05,09,43,984.39
2008,01,05,09,44,984.56
2008,01,05,09,45,984.56
2008,01,05,09,46,984.53
2008,01,05,09,47,984.46
2008,01,05,09,48,984.42
2008,01,05,09,49,984.56
2008,01,05,09,50,984.63
2008,01,05,09,51,984.69
2008,01,05,09,52,984.76
2008,01,05,09,53,984.69
2008,01,05,09,54,984.69
2008,01,05,09,55,984.69
2008,01,05,09,56,984.73
2008,01,05,09,57,984.83
2008,01,05,09,58,984.83
2008,01,05,09,59,984.93
2008,01,05,10,00,984.97
2008,01,05,10,01,985.00
2008,01,05,10,02,984.97
2008,01,05,10,03,985.00
2008,01,05,10,04,985.12
2008,01,05,10,05,985.20
2008,01,05,10,06,985.20
2008,01,05,10,07,985.27
2008,01,05,10,08,985.27
2008,01,05,10,09,985.30
2008,01,05,10,10,985.30
2008,01,05,10,11,985.37
2008,01,05,10,12,985.44
2008,01,05,10,13,985.51
2008,01,05,10,14,985.57
2008,01,05,10,15,985.61
2008,01,05,10,16,985.68
2008,01,05,10,17,985.81
2008,01,05,10,18,985.81
2008,01,05,10,19,985.88
2008,01,05,10,20,985.91
2008,01,05,10,21,985.91
2008,01,05,10,22,985.91
2008,01,05,10,23,985.85
2008,01,05,10,24,985.71
2008,01,05,10,25,985.71
2008,01,05,10,26,985.81
2008,01,05,10,27,985.85
2008,01,05,10,28,985.95
2008,01,05,10,29,985.98
2008,01,05,10,30,985.95
2008,01,05,10,31,986.02
2008,01,05,10,32,986.11
2008,01,05,10,33,986.15
2008,01,05,10,34,986.24
2008,01,05,10,35,986.29
2008,01,05,10,36,986.29
2008,01,05,10,37,986.35
2008,01,05,10,38,986.42
2008,01,05,10,39,986.49
2008,01,05,10,40,986.56
2008,01,05,10,41,986.52
2008,01,05,10,42,986.56
2008,01,05,10,43,986.52
2008,01,05,10,44,986.49
2008,01,05,10,45,986.39
2008,01,05,10,46,986.46
2008,01,05,10,47,986.49
2008,01,05,10,48,986.56
2008,01,05,10,49,986.56
2008,01,05,10,50,986.56
2008,01,05,10,51,986.56
2008,01,05,10,52,986.56
2008,01,05,10,53,986.49
2008,01,05,10,54,986.52
2008,01,05,10,55,986.52
2008,01,05,10,56,986.66
2008,01,05,10,57,986.69
2008,01,05,10,58,986.69
2008,01,05,10,59,986.69
2008,01,05,11,00,986.69
2008,01,05,11,01,986.76
2008,01,05,11,02,986.79
2008,01,05,11,03,986.83
2008,01,05,11,04,986.90
2008,01,05,11,05,986.90
2008,01,05,11,06,986.93
2008,01,05,11,07,986.93
2008,01,05,11,08,987.00
2008,01,05,11,09,987.03
2008,01,05,11,10,987.00
2008,01,05,11,11,987.03
2008,01,05,11,12,987.03
2008,01,05,11,13,987.00
2008,01,05,11,14,986.96
2008,01,05,11,15,986.96
2008,01,05,11,16,986.90
2008,01,05,11,17,986.93
2008,01,05,11,18,986.93
2008,01,05,11,19,987.00
2008,01,05,11,20,987.03
2008,01,05,11,21,987.03
2008,01,05,11,22,987.00
2008,01,05,11,23,986.96
2008,01,05,11,24,986.96
2008,01,05,11,25,986.96
2008,01,05,11,26,986.96
2008,01,05,11,27,987.00
2008,01,05,11,28,987.00
2008,01,05,11,29,987.00
2008,01,05,11,30,987.00
2008,01,05,11,31,987.03
2008,01,05,11,32,987.10
2008,01,05,11,33,987.10
2008,01,05,11,34,987.17
2008,01,05,11,35,987.17
2008,01,05,11,36,987.17
2008,01,05,11,37,987.17
2008,01,05,11,38,987.13
2008,01,05,11,39,987.20
2008,01,05,11,40,987.20
2008,01,05,11,41,987.23
2008,01,05,11,42,987.23
2008,01,05,11,43,987.23
2008,01,05,11,44,987.23
2008,01,05,11,45,987.30
2008,01,05,11,46,987.30
2008,01,05,11,47,987.34
2008,01,05,11,48,987.37
2008,01,05,11,49,987.40
2008,01,05,11,50,987.44
2008,01,05,11,51,987.44
2008,01,05,11,52,987.51
2008,01,05,11,53,987.57
2008,01,05,11,54,987.61
2008,01,05,11,55,987.54
2008,01,05,11,56,987.61
2008,01,05,11,57,987.64
2008,01,05,11,58,987.71
2008,01,05,11,59,987.67
2008,01,05,12,00,987.67
2008,01,05,12,01,987.67
2008,01,05,12,02,987.61
2008,01,05,12,03,987.67
2008,01,05,12,04,987.74
2008,01,05,12,05,987.78
2008,01,05,12,06,987.81
2008,01,05,12,07,987.84
2008,01,05,12,08,987.91
2008,01,05,12,09,987.91
2008,01,05,12,10,987.91
2008,01,05,12,11,987.91
2008,01,05,12,12,987.88
2008,01,05,12,13,987.91
2008,01,05,12,14,987.91
2008,01,05,12,15,987.98
2008,01,05,12,16,987.98
2008,01,05,12,17,987.95
2008,01,05,12,18,988.01
2008,01,05,12,19,987.95
2008,01,05,12,20,987.95
2008,01,05,12,21,987.95
2008,01,05,12,22,987.95
2008,01,05,12,23,987.98
2008,01,05,12,24,988.01
2008,01,05,12,25,988.11
2008,01,05,12,26,988.15
2008,01,05,12,27,988.15
2008,01,05,12,28,988.15
2008,01,05,12,29,988.18
2008,01,05,12,30,988.15
2008,01,05,12,31,988.18
2008,01,05,12,32,988.18
2008,01,05,12,33,988.25
2008,01,05,12,34,988.25
2008,01,05,12,35,988.25
2008,01,05,12,36,988.28
2008,01,05,12,37,988.32
2008,01,05,12,38,988.35
2008,01,05,12,39,988.39
2008,01,05,12,40,988.39
2008,01,05,12,41,988.39
2008,01,05,12,42,988.35
2008,01,05,12,43,988.35
2008,01,05,12,44,988.32
2008,01,05,12,45,988.39
2008,01,05,12,46,988.39
2008,01,05,12,47,988.42
2008,01,05,12,48,988.39
2008,01,05,12,49,988.42
2008,01,05,12,50,988.42
2008,01,05,12,51,988.39
2008,01,05,12,52,988.42
2008,01,05,12,53,988.42
2008,01,05,12,54,988.45
2008,01,05,12,55,988.45
2008,01,05,12,56,988.45
2008,01,05,12,57,988.45
2008,01,05,12,58,988.45
2008,01,05,12,59,988.45
2008,01,05,13,00,988.45
2008,01,05,13,01,988.45
2008,01,05,13,02,988.45
2008,01,05,13,03,988.49
2008,01,05,13,04,988.52
2008,01,05,13,05,988.52
2008,01,05,13,06,988.55
2008,01,05,13,07,988.59
2008,01,05,13,08,988.55
2008,01,05,13,09,988.59
2008,01,05,13,10,988.59
2008,01,05,13,11,988.66
2008,01,05,13,12,988.66
2008,01,05,13,13,988.72
2008,01,05,13,14,988.72
2008,01,05,13,15,988.72
2008,01,05,13,16,988.72
2008,01,05,13,17,988.76
2008,01,05,13,18,988.76
2008,01,05,13,19,988.72
2008,01,05,13,20,988.76
2008,01,05,13,21,988.79
2008,01,05,13,22,988.89
2008,01,05,13,23,988.89
2008,01,05,13,24,988.93
2008,01,05,13,25,988.89
2008,01,05,13,26,988.89
2008,01,05,13,27,988.93
2008,01,05,13,28,988.89
2008,01,05,13,29,988.93
2008,01,05,13,30,988.89
2008,01,05,13,31,988.93
2008,01,05,13,32,988.93
2008,01,05,13,33,988.96
2008,01,05,13,34,988.93
2008,01,05,13,35,988.96
2008,01,05,13,36,988.96
2008,01,05,13,37,989.00
2008,01,05,13,38,989.00
2008,01,05,13,39,989.00
2008,01,05,13,40,988.96
2008,01,05,13,41,988.89
2008,01,05,13,42,988.93
2008,01,05,13,43,989.00
2008,01,05,13,44,989.06
2008,01,05,13,45,989.03
2008,01,05,13,46,989.03
2008,01,05,13,47,989.03
2008,01,05,13,48,989.10
2008,01,05,13,49,989.13
2008,01,05,13,50,989.13
2008,01,05,13,51,989.16
2008,01,05,13,52,989.20
2008,01,05,13,53,989.16
2008,01,05,13,54,989.16
2008,01,05,13,55,989.16
2008,01,05,13,56,989.16
2008,01,05,13,57,989.16
2008,01,05,13,58,989.20
2008,01,05,13,59,989.27
2008,01,05,14,00,989.30
2008,01,05,14,01,989.27
2008,01,05,14,02,989.27
2008,01,05,14,03,989.27
2008,01,05,14,04,989.30
2008,01,05,14,05,989.30
2008,01,05,14,06,989.30
2008,01,05,14,07,989.30
2008,01,05,14,08,989.30
2008,01,05,14,09,989.33
2008,01,05,14,10,989.30
2008,01,05,14,11,989.33
2008,01,05,14,12,989.23
2008,01,05,14,13,989.23
2008,01,05,14,14,989.23
2008,01,05,14,15,989.23
2008,01,05,14,16,989.23
2008,01,05,14,17,989.20
2008,01,05,14,18,989.20
2008,01,05,14,19,989.16
2008,01,05,14,20,989.16
2008,01,05,14,21,989.13
2008,01,05,14,22,989.20
2008,01,05,14,23,989.20
2008,01,05,14,24,989.20
2008,01,05,14,25,989.20
2008,01,05,14,26,989.27
2008,01,05,14,27,989.27
2008,01,05,14,28,989.30
2008,01,05,14,29,989.30
2008,01,05,14,30,989.33
2008,01,05,14,31,989.40
2008,01,05,14,32,989.37
2008,01,05,14,33,989.44
2008,01,05,14,34,989.50
2008,01,05,14,35,989.50
2008,01,05,14,36,989.47
2008,01,05,14,37,989.47
2008,01,05,14,38,989.50
2008,01,05,14,39,989.54
2008,01,05,14,40,989.50
2008,01,05,14,41,989.56
2008,01,05,14,42,989.54
2008,01,05,14,43,989.54
2008,01,05,14,44,989.50
2008,01,05,14,45,989.57
2008,01,05,14,46,989.60
2008,01,05,14,47,989.64
2008,01,05,14,48,989.60
2008,01,05,14,49,989.60
2008,01,05,14,50,989.64
2008,01,05,14,51,989.64
2008,01,05,14,52,989.64
2008,01,05,14,53,989.64
2008,01,05,14,54,989.64
2008,01,05,14,55,989.64
2008,01,05,14,56,989.64
2008,01,05,14,57,989.64
2008,01,05,14,58,989.64
2008,01,05,14,59,989.64
2008,01,05,15,00,989.64
2008,01,05,15,01,989.64
2008,01,05,15,02,989.64
2008,01,05,15,03,989.67
2008,01,05,15,04,989.71
2008,01,05,15,05,989.71
2008,01,05,15,06,989.71
2008,01,05,15,07,989.71
2008,01,05,15,08,989.71
2008,01,05,15,09,989.74
2008,01,05,15,10,989.67
2008,01,05,15,11,989.67
2008,01,05,15,12,989.64
2008,01,05,15,13,989.64
2008,01,05,15,14,989.67
2008,01,05,15,15,989.64
2008,01,05,15,16,989.64
2008,01,05,15,17,989.67
2008,01,05,15,18,989.64
2008,01,05,15,19,989.67
2008,01,05,15,20,989.64
2008,01,05,15,21,989.64
2008,01,05,15,22,989.67
2008,01,05,15,23,989.64
2008,01,05,15,24,989.71
2008,01,05,15,25,989.71
2008,01,05,15,26,989.77
2008,01,05,15,27,989.71
2008,01,05,15,28,989.74
2008,01,05,15,29,989.74
2008,01,05,15,30,989.81
2008,01,05,15,31,989.81
2008,01,05,15,32,989.84
2008,01,05,15,33,989.84
2008,01,05,15,34,989.88
2008,01,05,15,35,989.88
2008,01,05,15,36,989.88
2008,01,05,15,37,989.94
2008,01,05,15,38,989.94
2008,01,05,15,39,989.98
2008,01,05,15,40,990.01
2008,01,05,15,41,989.98
2008,01,05,15,42,989.98
2008,01,05,15,43,989.98
2008,01,05,15,44,989.94
2008,01,05,15,45,989.98
2008,01,05,15,46,989.98
2008,01,05,15,47,989.98
2008,01,05,15,48,989.98
2008,01,05,15,49,989.98
2008,01,05,15,50,990.01
2008,01,05,15,51,990.01
2008,01,05,15,52,990.04
2008,01,05,15,53,990.01
2008,01,05,15,54,990.04
2008,01,05,15,55,990.08
2008,01,05,15,56,990.08
2008,01,05,15,57,990.11
2008,01,05,15,58,990.08
2008,01,05,15,59,990.15
2008,01,05,16,00,990.18
2008,01,05,16,01,990.21
2008,01,05,16,02,990.21
2008,01,05,16,03,990.25
2008,01,05,16,04,990.28
2008,01,05,16,05,990.35
2008,01,05,16,06,990.38
2008,01,05,16,07,990.38
2008,01,05,16,08,990.45
2008,01,05,16,09,990.45
2008,01,05,16,10,990.49
2008,01,05,16,11,990.55
2008,01,05,16,12,990.52
2008,01,05,16,13,990.52
2008,01,05,16,14,990.59
2008,01,05,16,15,990.55
2008,01,05,16,16,990.62
2008,01,05,16,17,990.62
2008,01,05,16,18,990.65
2008,01,05,16,19,990.69
2008,01,05,16,20,990.72
2008,01,05,16,21,990.72
2008,01,05,16,22,990.72
2008,01,05,16,23,990.69
2008,01,05,16,24,990.69
2008,01,05,16,25,990.69
2008,01,05,16,26,990.72
2008,01,05,16,27,990.65
2008,01,05,16,28,990.69
2008,01,05,16,29,990.69
2008,01,05,16,30,990.69
2008,01,05,16,31,990.69
2008,01,05,16,32,990.69
2008,01,05,16,33,990.69
2008,01,05,16,34,990.72
2008,01,05,16,35,990.69
2008,01,05,16,36,990.76